Theta_e
322 330 341 346 346 346 345 345 345 344 342 342 341 341 341 340 340 339 339 339 338 339 339 340 340 344 340 338 339 341 342 342 343 342 341 341 339 338 337 337 336 335 338
325 328 337 342 345 345 345 345 344 343 343 343 345 344 344 343 343 342 341 341 340 338 338 338 338 340 342 342 341 339 340 342 341 341 342 342 342 340 338 337 336 334 339
320 324 328 337 341 341 342 343 344 344 344 344 344 344 344 345 344 344 343 342 341 340 340 339 336 338 342 342 341 338 340 342 340 340 340 334 334 341 340 338 337 337 337
318 319 323 333 335 336 337 338 339 340 340 340 341 341 342 342 342 343 343 343 343 343 343 342 339 337 340 341 341 339 339 340 339 337 333 333 332 339 342 340 338 337 337
314 317 321 328 329 330 330 330 332 332 332 334 336 336 335 335 335 336 339 341 341 342 342 343 343 340 341 342 341 341 341 341 339 335 329 328 326 332 341 341 339 337 338
311 313 319 323 324 324 325 325 325 325 324 324 323 323 325 326 326 327 329 330 333 335 338 339 341 341 341 341 342 341 341 340 338 331 327 328 331 335 339 341 340 339 338
305 308 311 318 319 320 320 320 320 319 319 319 319 319 319 319 319 319 319 321 322 324 326 329 333 335 337 339 340 340 340 338 333 329 328 326 326 335 338 341 341 338 336
302 305 308 315 316 316 317 317 317 317 317 316 316 315 315 315 315 315 316 318 318 319 320 321 321 324 329 333 336 337 338 335 333 329 327 325 327 334 335 340 341 340 338
300 301 303 307 312 314 313 313 313 313 312 312 313 313 314 314 314 314 313 314 316 317 318 318 318 319 320 321 324 329 330 332 331 330 328 325 329 334 336 340 340 339 339
298 299 299 302 305 303 304 313 312 311 310 310 311 314 315 313 315 313 313 312 314 315 315 316 317 317 317 317 318 321 324 327 329 330 329 328 332 334 335 340 339 340 339
297 297 298 298 299 301 301 304 310 312 312 314 311 312 308 304 304 306 311 314 313 313 314 315 315 315 316 315 316 317 319 324 327 330 330 330 333 335 336 339 340 339 339
294 296 297 297 298 299 302 300 301 304 303 303 303 302 303 302 304 307 306 312 311 312 312 313 313 314 310 304 304 309 308 312 314 321 330 331 334 336 337 339 339 339 339
294 295 297 296 296 297 298 298 299 299 299 301 300 301 302 302 301 301 300 300 301 306 302 304 303 303 303 302 303 302 303 302 305 311 316 325 332 336 337 339 338 338 338
294 295 296 297 296 297 297 297 297 298 297 298 299 301 299 299 299 299 299 299 299 300 300 300 301 301 301 302 302 302 301 301 302 305 308 316 322 327 334 336 339 338 338
294 295 295 295 295 297 296 296 296 296 297 297 298 300 299 298 298 298 298 298 298 299 300 299 299 300 300 301 302 301 302 301 301 303 304 310 316 319 322 329 336 337 337
296 295 295 295 296 296 295 295 296 296 296 296 297 299 300 299 298 298 297 298 298 299 299 299 299 299 299 300 301 302 301 301 301 302 303 305 312 315 315 319 325 331 336
295 296 295 296 296 295 295 295 296 296 297 296 296 299 299 300 298 297 297 297 297 298 298 298 298 299 298 299 299 300 301 301 301 301 302 302 304 310 313 314 317 321 327
295 295 296 299 296 295 294 295 295 295 295 295 296 298 300 300 299 297 296 296 297 298 298 297 297 296 296 297 297 298 299 300 300 300 301 301 302 303 307 313 315 317 321
295 295 295 295 294 295 294 295 294 295 295 296 296 297 299 299 300 296 296 296 297 297 296 296 296 295 295 295 296 297 298 298 299 300 300 300 301 302 302 306 310 312 318
294 294 294 294 293 295 295 294 294 294 295 296 295 297 298 298 298 296 296 296 296 295 295 295 294 294 294 294 294 294 295 296 298 298 299 300 301 301 302 302 302 304 310
293 293 295 293 294 294 292 292 293 293 294 294 296 298 298 298 298 296 295 295 295 294 293 294 293 291 291 291 290 291 291 294 294 295 297 298 298 300 301 302 302 303 304
293 294 294 295 294 294 294 294 293 292 293 294 296 297 298 297 297 297 295 294 294 293 292 292 292 290 290 290 288 287 286 289 293 294 294 295 295 297 297 298 300 302 304
292 292 294 295 295 294 295 294 293 294 293 294 295 294 296 297 297 296 295 294 293 292 291 291 290 289 288 289 289 288 284 283 287 291 292 293 293 294 295 296 297 298 299
293 292 294 294 294 294 295 293 292 292 291 292 293 294 294 296 295 296 295 293 292 291 290 289 291 289 288 287 289 292 291 289 285 284 289 290 292 293 293 294 295 297 300
292 293 293 293 293 294 294 293 292 291 292 292 292 293 293 294 294 294 294 292 291 290 290 289 289 288 289 288 287 288 289 289 289 286 284 287 290 292 293 294 295 295 297
292 292 291 292 292 293 293 293 292 292 292 291 291 291 291 291 291 292 293 291 290 290 289 289 288 288 288 288 288 288 287 286 285 285 283 283 284 286 289 292 292 292 293
Wind_Speed
3 4 8 10 7 8 7 6 5 4 3 3 3 4 4 4 3 3 4 4 4 6 6 7 8 11 3 3 2 6 5 5 4 3 2 4 3 4 5 5 4 2 7
9 6 10 11 11 9 8 7 6 4 2 2 6 6 6 6 5 5 5 4 5 6 6 7 8 8 6 5 3 2 2 3 4 5 6 6 7 7 7 7 6 1 9
11 9 7 10 11 11 12 12 11 9 7 6 6 7 8 6 6 7 7 6 6 6 7 7 7 7 8 5 4 4 3 3 4 4 6 4 5 10 10 9 8 8 8
10 8 5 9 11 10 10 11 11 9 10 10 8 7 8 12 11 11 9 6 6 7 8 8 8 8 5 5 5 6 5 5 5 5 4 5 6 12 15 11 10 11 10
9 8 6 10 11 11 11 11 11 10 11 10 9 10 9 10 9 9 10 11 10 9 7 9 10 8 6 6 7 7 6 7 7 6 5 6 6 9 14 14 12 12 11
8 7 8 10 11 11 10 10 10 10 10 9 8 9 9 10 11 10 10 11 10 11 12 12 13 11 10 8 8 10 9 9 8 5 6 7 8 12 16 15 15 12 12
8 7 6 10 10 10 9 9 9 9 9 9 10 10 10 10 10 11 11 12 12 11 11 11 12 11 12 12 12 12 12 11 6 6 6 6 7 15 17 14 16 16 16
9 7 6 9 9 10 9 9 9 9 10 10 11 10 9 9 10 11 10 11 12 12 12 12 13 13 13 13 13 13 11 11 8 7 7 7 10 17 18 16 15 17 18
8 8 6 6 7 10 9 9 8 8 8 8 9 8 7 6 8 11 9 11 12 11 11 12 12 13 14 16 15 14 13 12 8 6 8 6 11 19 21 17 16 18 17
7 7 7 6 6 6 5 7 6 6 5 4 4 8 7 8 8 8 6 6 9 9 10 11 11 11 14 15 16 15 14 13 8 7 8 8 14 20 21 22 18 18 18
4 7 6 6 6 6 6 5 5 2 3 0 5 6 5 3 3 5 6 9 10 12 12 12 13 14 13 10 11 13 14 5 6 6 5 12 17 22 23 22 21 21 20
7 6 7 6 5 4 4 5 4 4 2 2 2 3 2 3 4 5 6 10 11 12 12 14 15 14 10 5 4 8 3 6 6 7 6 13 18 23 25 24 23 23 22
9 6 7 7 6 5 3 2 1 2 1 1 1 2 3 3 4 4 3 3 4 5 3 5 5 3 5 4 5 4 5 5 4 6 9 17 20 25 26 25 25 25 25
8 9 8 8 7 6 3 2 3 3 1 1 1 1 2 2 3 3 3 4 4 3 5 4 3 5 6 7 7 7 6 5 4 5 7 14 19 23 24 27 27 26 26
10 9 9 9 7 6 5 3 2 2 2 3 1 1 3 2 2 2 3 3 4 3 3 4 4 5 6 7 7 7 8 8 7 5 5 13 18 24 27 28 29 29 28
11 10 9 9 8 7 5 4 3 2 3 1 1 2 2 2 1 2 3 4 4 3 3 4 4 4 5 6 7 7 7 7 8 9 8 9 17 21 26 28 30 32 32
9 10 10 9 8 8 7 5 4 3 3 1 1 0 1 2 1 2 2 4 4 3 5 4 4 4 4 5 7 7 8 9 9 10 10 8 10 17 21 27 29 31 32
10 10 9 9 9 8 7 5 3 3 2 2 2 1 1 2 1 2 2 4 4 4 4 4 4 4 5 6 8 8 8 9 12 12 11 10 10 9 14 22 26 29 31
13 11 10 9 10 9 7 4 4 3 2 2 1 1 2 1 2 3 3 4 5 4 4 4 3 3 6 7 9 9 9 10 12 11 14 13 13 12 11 17 23 24 27
12 11 10 8 9 8 5 4 2 1 2 1 2 3 3 0 3 3 2 4 4 3 4 4 4 3 4 7 10 10 9 10 10 10 11 9 10 13 13 14 11 12 22
10 12 13 11 9 6 3 3 1 3 2 1 2 3 1 2 2 2 1 3 3 3 4 5 2 3 5 5 7 6 9 10 12 8 7 8 9 10 9 10 10 10 10
15 14 13 13 9 7 5 3 3 3 2 2 2 2 3 3 1 1 1 2 3 3 5 4 3 3 3 3 4 7 7 5 3 8 12 10 11 7 10 11 9 10 11
15 14 14 12 11 8 7 4 3 3 1 0 1 1 2 2 1 2 2 1 2 1 3 3 3 4 4 3 2 3 5 5 15 3 6 10 12 8 8 12 12 13 14
14 12 12 12 10 9 9 6 6 5 4 3 3 3 2 1 2 2 3 2 1 2 3 3 3 3 2 7 4 6 9 12 9 18 9 3 13 13 14 9 11 12 11
13 13 12 10 8 8 9 8 6 5 4 3 2 2 2 1 1 2 2 2 2 2 3 4 4 4 3 5 6 7 9 10 12 13 22 16 11 11 12 12 12 11 12
11 11 9 11 9 10 9 8 9 8 6 4 3 3 2 0 2 3 3 3 3 4 4 4 5 5 7 8 7 8 10 10 10 12 15 21 20 12 11 10 13 13 12
Wind_Direction
112 87 55 60 87 84 85 94 147 181 207 228 243 254 268 293 305 300 311 323 333 332 335 339 335 340 272 285 276 339 306 291 258 227 190 181 177 187 170 163 172 208 200
118 85 62 64 74 81 77 81 80 77 74 280 256 257 256 258 263 273 278 284 300 313 314 317 323 339 329 287 276 253 268 257 276 262 231 198 195 204 211 187 180 172 176
105 86 59 70 81 79 71 70 69 70 62 54 50 42 32 6 301 270 256 263 273 290 303 307 312 320 333 265 256 233 236 249 250 226 206 205 233 228 218 199 198 177 185
106 90 69 83 82 77 73 75 74 68 59 47 45 45 51 49 30 22 28 357 289 280 290 295 301 304 310 312 241 240 242 233 243 255 251 244 243 242 235 213 210 198 192
104 99 89 94 91 90 87 82 78 75 69 67 53 48 47 50 45 32 29 23 12 355 328 310 292 287 285 267 268 247 241 242 242 252 255 260 263 271 232 219 213 207 203
114 105 97 95 96 93 89 84 80 74 70 65 60 55 50 44 41 35 31 30 22 8 4 354 348 340 302 285 265 258 245 242 246 241 254 258 263 270 262 232 209 204 207
120 115 104 106 104 102 96 89 82 75 68 57 49 43 41 41 36 27 22 20 11 3 359 353 344 327 318 325 316 284 261 250 250 234 241 249 259 273 260 235 219 215 212
127 131 120 116 113 106 100 94 85 75 66 57 49 46 47 43 41 29 26 18 8 2 356 348 340 334 331 325 314 306 298 258 257 231 241 251 261 268 270 267 215 220 219
126 133 142 139 130 119 110 96 85 77 74 65 50 42 27 24 31 29 31 9 5 1 355 348 340 334 331 325 317 310 304 289 261 244 242 241 250 267 267 250 236 225 230
145 143 153 161 151 133 134 130 119 110 85 65 62 25 37 33 38 17 15 352 357 355 349 349 344 339 334 324 318 310 305 297 273 250 248 245 247 260 266 258 238 227 233
149 158 151 154 157 164 165 159 157 164 168 73 63 33 34 15 16 14 359 354 5 352 347 345 349 340 340 348 343 337 334 321 300 267 248 250 247 254 260 260 242 233 229
172 172 166 163 160 159 147 146 182 200 155 157 125 79 40 12 1 13 3 355 357 346 352 350 342 342 340 331 319 323 311 309 311 305 278 253 254 260 260 258 252 240 232
186 178 173 166 162 148 155 134 135 108 148 55 87 76 41 23 7 5 359 350 343 346 345 338 335 324 321 315 310 306 300 300 289 293 292 294 288 267 263 261 258 248 238
178 179 175 169 165 172 146 161 162 143 158 164 279 161 85 26 7 347 348 341 342 330 327 332 332 323 316 311 303 301 292 284 284 288 287 293 297 295 294 275 266 261 246
173 179 175 171 170 174 159 174 162 193 164 208 241 235 113 70 355 346 331 331 323 324 323 330 321 309 301 295 290 284 290 286 279 275 278 278 284 288 286 281 280 271 258
168 171 179 174 175 166 159 174 196 192 196 151 240 207 120 118 50 354 331 326 323 331 329 328 319 307 304 298 297 285 277 277 277 281 280 277 272 276 280 279 277 274 273
177 170 178 173 173 162 171 185 194 212 161 155 236 151 110 105 55 343 326 322 315 323 328 329 315 308 308 307 307 305 300 295 287 281 277 273 276 272 270 273 275 273 270
166 175 176 170 171 166 174 179 179 188 169 186 191 183 103 114 42 9 353 325 322 331 328 333 323 329 319 318 312 305 297 291 287 282 279 275 272 273 275 272 271 272 271
175 173 177 169 169 171 177 163 164 206 194 209 200 152 136 92 52 53 357 322 331 333 340 331 341 327 323 318 311 307 298 289 283 282 277 274 275 274 275 273 273 271 268
178 174 171 169 168 167 158 141 153 223 249 202 176 150 160 95 67 54 346 324 332 339 332 334 336 342 328 325 313 297 284 281 276 270 273 278 273 267 267 269 269 268 267
175 173 175 167 176 152 140 137 165 195 191 196 174 204 187 110 92 33 317 326 330 342 327 324 326 334 320 328 314 309 287 271 267 267 277 271 273 278 276 268 268 265 267
182 178 173 176 169 173 148 161 150 155 208 182 196 248 163 141 75 275 296 304 333 342 337 331 336 321 280 26 313 304 324 296 344 323 292 285 292 294 304 295 306 294 275
179 176 175 175 172 170 162 130 101 74 20 331 227 185 185 137 224 249 254 273 326 337 313 310 314 332 315 311 277 281 319 292 329 280 314 289 280 299 306 301 296 296 292
185 171 169 171 171 169 163 157 161 175 182 202 172 175 199 180 261 241 250 247 246 276 290 274 287 274 262 290 286 233 249 272 296 308 291 280 303 285 288 292 295 290 296
167 173 173 169 165 161 171 169 169 182 197 187 169 200 217 288 274 290 292 306 328 305 278 282 289 281 250 275 278 288 281 279 274 275 291 299 290 287 287 286 283 285 293
161 167 168 164 172 166 171 174 176 189 195 185 202 223 244 226 312 322 343 2 327 308 294 288 285 273 273 267 273 276 275 277 278 276 278 289 292 291 284 289 288 288 280